Location: Bosdarros
(43.2167°N, 0.3667°W)
Time: 02:26:34
(UTC+00:00)

Terra - Pass Details

Date: 22 April 2021
Orbit: 701 x 703 km, 98.2° (Epoch: 15 May)

Event Time Altitude Azimuth Distance (km) Brightness Sun altitude
Exits shadow 21:03:51 27° 71° (ENE) 1,342 3.0 -21.3°
Maximum altitude 21:04:04 27° 66° (ENE) 1,339 3.0 -21.3°
Drops below altitude 10° 21:08:03 10° 10° (N) 2,179 4.8 -21.9°
Sets 21:10:35 0° 358° (N) 3,102 5.8 -22.2°
